User: anonymous   Login
Location: Caltech
(34.1382°N, 118.1253°W)
Time: 21:44:53
(UTC-07:00)
Language:

Cosmos 1508 Rocket - Orbit

View from above orbital plane
View from above orbital plane
View from above satellite
View from above satellite

Ground track
Ground track

The orbit data is extracted from the following two-line orbital elements,

1 14484U 83111B   14304.82796797  .00057993  00000-0  71339-3 0  6864
2 14484 082.8380 196.1462 0184040 140.6663 308.1852 15.42288452593537
Epoch (UTC): 31 October 2014 19:52:16
Eccentricity: 0.0184040
inclination: 82.8380°
perigee height: 314 km
apogee height: 565 km
right ascension of ascending node: 196.1462°
argument of perigee: 140.6663°
revolutions per day: 15.42288452
mean anomaly at epoch: 308.1852°
orbit number at epoch: 59353

The dashed part of the orbit path shows where the satellite is in the earth's shadow,  

DLR